Location: Unspecified
(38.9820°N, 94.4650°W)
Time: 04:43:56
(UTC-06:00)

Hubble Space Telescope - Visible Passes

Search period start: 11 February 2016 00:00
Search period end: 21 February 2016 00:00
Orbit: 540 x 543 km, 28.5° (Epoch: 10 February)

Date Brightness Start Highest point End Pass type
(mag) Time Alt. Az. Time Alt. Az. Time Alt. Az.
12 Feb 3.1 18:56:28 10° S 18:58:00 12° SSE 18:59:32 10° SE visible
13 Feb 3.1 18:46:21 10° SSW 18:48:26 14° SSE 18:50:32 10° SE visible
13 Feb 3.6 20:26:03 10° SW 20:26:35 12° SW 20:26:35 12° SW visible
14 Feb 3.0 18:36:26 10° SSW 18:38:52 15° S 18:41:19 10° SE visible
14 Feb 3.3 20:16:31 10° SW 20:17:45 15° SSW 20:17:45 15° SSW visible
15 Feb 2.9 18:26:38 10° SSW 18:29:19 17° S 18:32:00 10° SE visible
15 Feb 3.0 20:07:02 10° SW 20:08:56 17° SSW 20:08:56 17° SSW visible
16 Feb 2.9 18:16:55 10° SW 18:19:45 18° S 18:22:36 10° SE visible
16 Feb 2.9 19:57:36 10° SW 20:00:06 17° SSW 20:00:06 17° SSW visible
17 Feb 2.9 19:48:13 10° SW 19:50:49 16° S 19:51:18 16° S visible
18 Feb 3.1 19:38:55 10° SW 19:41:15 15° SSW 19:42:32 13° S visible
19 Feb 3.3 19:29:45 10° SW 19:31:40 13° SSW 19:33:35 10° SSE visible
20 Feb 3.4 19:20:52 10° SW 19:22:04 11° SSW 19:23:16 10° S visible
